CZ-3B R/B (47232 NORAD) Tracking and Keplerian Element Data

This shows tracking and keplerian element data for the satellite.

Feedback or suggestion? Click here.




ElementValue
Catalog47232
NameCZ-3B R/B
Epoch Orbit449
Epoch Day4.46350558
Epoch Year2021
RAAN82.2172
Inclination97.3733
Eccentricity0.0093434
Argument of Perigee297.801
Mean Anonmoly61.3786
Mean Motion15.35844262
Decay Rate2.756E-05
L11 47232U 20092B 21004.46350558 .00002756 00000-0 70787-4 0 9997
L22 47232 97.3733 82.2172 0093434 297.8010 61.3786 15.35844262 4492

Live tracking and technical data element details for CZ-3B R/B (NORAD 47232). CZ-3B R/B can be tracked NOW for your location showing map with azimuth and elevation plus other details from your city location.

Track the satellite on the map from your city or location and see movement details for azimuth, elevation, latitude, longitude, range, height, and movement on the map or in text.







IsCatalogInMostPopularTable: catalog: 47232, numindb: 37
Update: records affected: 1



GetName: 47232 CZ-3B R/B

Hit Count: updated at: Tue, 02 Mar 2021 13:38:32 GMT